Погода в Любани

Погода в Любани : погода сейчас, прогноз погоды и архив. Всё, что Вы хотите узнать о погоде в Любани!

Поиск расширенной информации на нашем сайте:

Другие новости

Новости СМИ2

Главная страница сайта

Новости сайта

02.10.2013

Напоминаем, что на нашем новом сайте вы можете получить высокодетализированные прогнозы погоды по пунктам России, СНГ и мира (включающие важные для авиации метеовеличины, такие как направление и скорость ветра, видимость, явления погоды, количество и форма облачности, нижняя и верхняя граница облачности), а также ознакомиться с разнообразными материалами по авиационной метеорологии и подборкой полезных ссылок на эту тему.

Сайт Метеоцентр.Азия посвящён разработке технологий оптимизации авиаметеорологического обслуживания, включая проектирование и перспективное создание нескольких автоматизированных авиаметеорологических систем:
- система выпуска высокодетальных прогностических карт явлений погоды для нижнего воздушного пространства по России и ближнему зарубежью;
- система верификации прогнозов TAF (выпускаемых синоптиками официальных АМСГ РФ и ближнего зарубежья) и AUTOTAF (выпускаемых сайтом Метеоцентр.Азия) - выявление ошибок, онлайн-сопоставление с фактической погодой METAR, автоматическое внесение коррективов в прогнозы при резком отклонении фактической погоды от прогноза, подсчёт оправдываемости прогнозов по элементам и в целом;
- система обработки, анализа и отображения авиаметеорологической информации для применения провайдерами метеорологической информации.

Рекомендуем: Окна salamander.

Погода в Любани - сегодня

Время (UTC), дата Ветер
(°,м/с) 
Видим.   Явления Облачность Т
(°С)
Тd
(°С)
f(%) Тe
(°С)
Pmin
(гПа)
dP
(гПа)
Po
(мм)
O2
(г/м3)
Тmin Tmax R s Состояние
почвы
09 25.06.17 220 (ЮЗ) н/о    н/о 
+18.5 +10.6 60 +21  998.4  0.1  745  279           
12 25.06.17 250 (З) н/о    н/о 
+19.3 +8.3 49 +20  998.6  0.2  746  279           
15 25.06.17 тихо ()   н/о    н/о 
+15.9 +11.7 76 +19  999.6  746  282           
18 25.06.17 220 (ЮЗ) 10 км    9/3 1000 м кучево-дожд., средняя, верхняя 
[Cb cap|Ac trans|Ci fib]
+17.8 +10.5 62 +21  999.8  0.2  746  280    +22.1  0.1     
21 25.06.17 200 (Ю) н/о    н/о 
+13.8 +7.9 68 +14  999.9  746  285           
00 26.06.17 170 (Ю) н/о    н/о 
+13.1 +8.5 74 +14  999.1  -0.7  746  285           
03 26.06.17 190 (Ю) н/о    н/о 
+12.5 +9.7 83 +14  998.7  -0.5  746  285  +12.4         
06 26.06.17 210 (ЮЗ) 10 км    9/8 660 м верхняя 
[Sc|Ci fib]
+14.6 +10.4 76 +17  997.7  -0.9  745  283  +12.4        влажная 
09 26.06.17 210 (ЮЗ) н/о    н/о 
+16.7 +9.6 63 +18  997.3  -0.4  745  281           
12 26.06.17 210 (ЮЗ) н/о    н/о 
+14 +11.9 87 +19  997  -0.4  744  283           
15 26.06.17 260 (З) 2{13}  н/о    н/о 
+13 +11.1 88 +16  997.3  0.3  744  284           
18 26.06.17 250 (З) 2000 м  гроза, ливневой дождь  10/10 630 м кучево-дожд. 
[Cb cap]
+11.9 +10.9 94 +16  997.4  -0.1  745  285    +17.2     
21 26.06.17 190 (Ю) н/о    н/о 
+9.7 +9 95 +10  997.1  -0.3  744  288           
00 27.06.17 210 (ЮЗ) н/о    н/о 
+10.4 +9.8 96 +12  996.7  -0.4  744  287           
03 27.06.17 210 (ЮЗ) н/о    н/о 
+11.1 +10.1 94 +12  997.6  0.9  745  286  +9.6         
06 27.06.17 230 (ЮЗ) 10 км    9/9 800 м 
[Sc]
+14 +10.8 81 +17  998.2  0.6  745  284  +9.6      мокрая 
09 27.06.17 230 (ЮЗ) 4-10{12}  н/о    н/о 
+15.5 +10 70 +16  999  0.9  746  283           
12 27.06.17 250 (З) 3{13}  н/о    н/о 
+15.9 +11.5 75 +19  1000.6  1.6  747  282           
15 27.06.17 270 (З) 4{12}  н/о    н/о 
+17.1 +7.7 54 +17  1001.9  748  282           
18 27.06.17 270 (З) 3{11}  10 км    4/3 1000 м верхняя 
[Sc|Ci fib]
+15.3 +7.4 59 +16  1003.4  1.4  749  285    +17.5  0.7     
21 27.06.17 250 (З) н/о    н/о 
+11.7 +7.5 75 +12  1004.8  1.3  750  289           
00 28.06.17 230 (ЮЗ) н/о    н/о 
+11.3 +8.3 82 +12  1005.8  0.9  751  289           
03 28.06.17 250 (З) н/о    н/о 
+11.7 +9 83 +11  1006.8  752  289  +10.3         
06 28.06.17 230 (ЮЗ) 10 км    9/9 800 м 
[Sc]
+13.4 +9.6 78 +14  1008.2  1.4  753  287  +10.3    0.0    влажная 
09 28.06.17 250 (З) н/о    н/о 
+17.5 +10.1 62 +19  1009.5  1.3  754  284           
Время (UTC), дата Ветер
(°,м/с) 
Видим.   Явления Облачность Т
(°С)
Тd
(°С)
f(%) Тe
(°С)
Pmin
(гПа)
dP
(гПа)
Po
(мм)
O2
(г/м3)
Тmin Tmax R s Состояние
почвы

Для получения пояснительной информации подведите курсор к названию столбца.

ПОГОДА в Любани - архив

Всё, что Вы хотите узнать о погоде в Любани - удобно и подробно!

Выберите нужную дату (начиная с 1 января 2015* года) и нажмите кнопку "Найти".
Будут отображены архивные сводки погоды по пункту Любань, начиная с указанной даты.


Отображать данные в формате CSV (для использования в таблицах Excel)


Внимание! Наш архив погоды предназначен исключительно для личного некоммерческого использования в познавательных целях. Если Вам необходимы официальные справки о состоянии погоды (для производственных, юридических, коммерческих и т.п. целей), обращайтесь в органы Росгидромета.

*Примечание: данная дата относится к архиву по метеостанциям СССР (Россия, СНГ, Балтия).
Архив по метеостанциям Зарубежной Европы и Азии (кроме Китая) хранится 10 дней, по другим регионам земного шара (Китай, Африка, Америка, Австралия, Океания) - 1 день.

Любань - район местоположения метеостанции


Название, широта, долгота, высота метеостанции:
Любань 59.3°ш. 31.2°д. 39 м над ур. моря [Российская Федерация]

Дополнительная информация

В oтличие oт бoльшинства пoгoдных сайтoв мы публикуем пoдрoбную метеoинфoрмацию в детальнoм прoфессиoнальнoм фoрмате.

Характеристики температуры и влажнoсти вoздуха измеряются на высoте 2 м в тени вдали oт зданий и деревьев.
Скoрoсть ветра измеряется на высoте 10 м (на урoвне рoста челoвека скoрoсть ветра ниже в 1.5-2 раза). Если метеoстанция нахoдится в гoрoде или в лесу, тo скoрoсть ветра занижена на 2-4 м/с пo сравнению с oткрытым местoм. Скoрoсть ветра над акватoриями крупных рек и oзёр, а также на вершинах хoлмoв на 2-5 м/с выше, чем в oбычных услoвиях.
Атмoсфернoе давление в разных тoчках местнoсти мoжет значительнo oтличаться oт давления на метеoстанции, в зависимoсти oт услoвий рельефа (при пoдъёме на 10 м давление пoнижается примернo на 1 мм рт.ст.).